Tracking 21472 objects as of 22-Sep-2020
HD Live streaming from Space Station
objects crossing your sky now

ISO

Track ISO now!
ISO is classified as:


NORAD ID: 23715
Int'l Code: 1995-062A
Perigee: 663.3 km
Apogee: 69,960.0 km
Inclination: 0.7 °
Period: 1,411.5 minutes
Semi major axis: 41682 km
RCS: 3.9811 m2 (large)
Launch date: November 17, 1995
Source: European Space Agency (ESA)
Launch site: FRENCH GUIANA (FRGUI)
aabbcc
Your satellite tracking list
Your tracking list is empty




NASA's NSSDC Master Catalog

Two Line Element Set (TLE):
1 23715U 95062A   20265.06475849 -.00000371 +00000-0 +93132-2 0  9990
2 23715 000.6619 137.3507 8312412 210.1599 000.8610 01.02016349092299
Source of the keplerian elements: AFSPC